Погода в Любви

Россия / Забайкальский край     49°38′27″N   112°09′08″E
темп.,
°C
ветер,
м/с
пор.,
м/с
влажн.,
%
обл.,
%
осадки,
мм/ч
давл.,
гПа
погр.,
м
1 марта, пн
пн100:00−22с119098 0.0 104020
03:00−23ссз119198 0.0 104120
06:00−24зсз119795 0.0 103820
09:00−25з119775 0.0 103820
12:00−18ююз22872 0.0 1033245
15:00−16ююз347713 0.0 1028456
18:00−17юз228923 0.0 102546
21:00−21зсз129112 0.0 102720
2 марта, вт
вт200:00−21з12870 0.0 102620
03:00−21з118750 0.0 102420
06:00−22зсз118690 0.0 102120
09:00−21з128269 0.0 101920
12:00−15зюз227036 0.0 1015204
15:00−10юз226418 0.0 1011307
18:00−11юз12812 0.0 101025
21:00−14зсз11821 0.0 101220
3 марта, ср
ср300:00−13зюз228172 0.0 101221
03:00−14зсз228084 0.0 101121
06:00−14сз12791 0.0 101120
09:00−13зсз228333 0.0 101121
12:00−7зюз2378100 0.0 1008245
15:00−4зюз367254 0.1 1006652
18:00−6юз228559 0.1 100646
21:00−9ссз347771 0.2 101032
4 марта, чт
чт400:00−13сз228383 0.0 101321
03:00−15зсз228675 0.0 101620
06:00−17сз23880 0.0 101821
09:00−17зсз388336 0.0 1022205
12:00−13сз913592 0.0 10231122
15:00−12сз813611 0.0 10241545
18:00−14сз5107254 0.0 10271151
21:00−20сз348251 0.0 103353
5 марта, пт
пт500:00−22сз338531 0.0 103720
03:00−24зсз338218 0.0 104038
06:00−25зсз22800 0.0 104220
09:00−25зсз22790 0.0 104420
12:00−18юз22680 0.0 1041282
15:00−14ююз23660 0.0 1038423
18:00−15ююз238614 0.0 103597
21:00−19юз119321 0.0 103720